Regional Weather Roundup
Issued by NWS Goodland, KS

Home | Current Version | Previous Version | Text Only | Print | Product List | Glossary On
Versions: 1 2 3 4 5 6 7 8 9 10 11 12 13 14 15 16 17 18 19 20 21 22 23 24 25 26 27 28 29 30 31 32 33 34 35 36 37 38 39 40 41 42 43 44 45 46 47 48 49 50
000
ASUS43 KGLD 200508
RWRGLD

GOODLAND FORECAST AREA HOURLY WEATHER ROUNDUP
NATIONAL WEATHER SERVICE GOODLAND KS
1000 PM MST SUN FEB 19 2017

...OFFICIAL OBSERVATIONS...

CITY           SKY/WX    TMP DP  RH WIND       PRES   REMARKS
GOODLAND KS    PTCLDY    52  30  43 S18       29.66F
HILL CITY KS   CLOUDY    57  55  93 S14G21    29.72F
IMPERIAL NEB   PTCLDY    54  31  41 S5        29.64R
MCCOOK NEB     CLOUDY    56  50  80 S14       29.67R
AKRON CO       MOCLDY    50  29  44 SW14      29.62R
BURLINGTON CO  PTCLDY    51  33  50 S17       29.66F
LIMON CO       PTCLDY    41  26  55 W7        29.68R
$$

...UNOFFICIAL OBSERVATIONS...

CITY           SKY/WX    TMP DP  RH WIND       PRES   REMARKS
LENORA KS        N/A     55  32  41 SE12        N/A
NORTON KS      PTCLDY    55  48  76 SE12G18   29.70F
SHARON SPRINGS   N/A     51  35  55 S13         N/A
TRENTON NEB      N/A     52  32  46 S9          N/A
KIT CARSON CO    N/A     48  33  57 MISG        N/A
YUMA CO        FAIR      50  32  50 S15       29.62F
$$



USA.gov is the U.S. government's official web portal to all federal, state and local government web resources and services.